| time (UTC) | temp C | wind direction | speed KPH | gust KPH | rain 1hr cm | rain 24hr cm | rain mn cm | humidity % | barometer mb |
| 20260507080003 | 2 | 265 | 6.4 | 9.7 | 0.00 | 1.45 | 0.00 | 62 | 1011.0 |
| 20260507075503 | 2 | 266 | 4.8 | 9.7 | 0.00 | 1.47 | 0.00 | 61 | 1011.0 |
| 20260507075003 | 2 | 265 | 4.8 | 9.7 | 0.00 | 1.50 | 0.00 | 61 | 1011.0 |
| 20260507074714 | 2 | 262 | 4.8 | 9.7 | 0.00 | 1.50 | 0.00 | 61 | 1011.1 |
| 20260507074003 | 2 | 259 | 4.8 | 9.7 | 0.00 | 1.57 | 0.00 | 61 | 1011.0 |
| 20260507073503 | 2 | 260 | 4.8 | 9.7 | 0.00 | 1.57 | 0.00 | 61 | 1010.9 |
| 20260507073003 | 2 | 264 | 3.2 | 9.7 | 0.00 | 1.63 | 0.00 | 61 | 1010.8 |
| 20260507072503 | 2 | 265 | 1.6 | 6.4 | 0.00 | 1.70 | 0.00 | 60 | 1010.8 |
| 20260507072003 | 2 | 266 | 1.6 | 4.8 | 0.00 | 1.73 | 0.00 | 60 | 1010.9 |
| 20260507071503 | 3 | 266 | 1.6 | 4.8 | 0.00 | 1.83 | 0.00 | 60 | 1011.0 |
| 20260507071003 | 3 | 267 | 1.6 | 4.8 | 0.00 | 1.88 | 0.00 | 60 | 1011.0 |
| 20260507070503 | 3 | 268 | 1.6 | 4.8 | 0.00 | 1.91 | 0.00 | 59 | 1011.0 |
| 20260507070006 | 3 | 269 | 1.6 | 4.8 | 0.00 | 1.93 | 0.00 | 59 | 1011.0 |
| 20260507065503 | 3 | 269 | 0.0 | 3.2 | 0.00 | 1.93 | 0.00 | 59 | 1010.9 |
| 20260507065214 | 3 | 269 | 0.0 | 3.2 | 0.00 | 1.93 | 0.00 | 59 | 1010.8 |
| 20260507064503 | 3 | 272 | 0.0 | 4.8 | 0.00 | 1.93 | 0.00 | 58 | 1010.8 |
| 20260507064003 | 3 | 272 | 0.0 | 4.8 | 0.00 | 1.96 | 0.00 | 58 | 1010.9 |
| 20260507063503 | 3 | 267 | 0.0 | 3.2 | 0.00 | 1.98 | 0.00 | 58 | 1010.9 |
| 20260507063003 | 4 | 266 | 0.0 | 4.8 | 0.00 | 1.98 | 0.00 | 58 | 1011.0 |
| 20260507062503 | 4 | 264 | 0.0 | 4.8 | 0.00 | 1.98 | 0.00 | 58 | 1011.0 |
| 20260507062003 | 4 | 262 | 0.0 | 3.2 | 0.00 | 1.98 | 0.00 | 57 | 1010.9 |
| 20260507061503 | 4 | 262 | 0.0 | 3.2 | 0.00 | 2.01 | 0.00 | 58 | 1011.2 |
| 20260507061003 | 4 | 262 | 1.6 | 6.4 | 0.00 | 2.01 | 0.00 | 57 | 1011.2 |
| 20260507060713 | 4 | 262 | 1.6 | 6.4 | 0.00 | 2.01 | 0.00 | 57 | 1011.2 |
| 20260507060003 | 4 | 257 | 1.6 | 9.7 | 0.00 | 2.03 | 0.00 | 57 | 1011.3 |
| 20260507055503 | 4 | 261 | 1.6 | 9.7 | 0.00 | 2.03 | 0.00 | 57 | 1011.4 |
| 20260507055003 | 4 | 278 | 3.2 | 6.4 | 0.00 | 2.03 | 0.00 | 56 | 1011.4 |
| 20260507054503 | 4 | 280 | 3.2 | 12.9 | 0.00 | 2.06 | 0.00 | 56 | 1011.5 |
| 20260507054003 | 4 | 270 | 3.2 | 12.9 | 0.00 | 2.06 | 0.00 | 56 | 1011.5 |
| 20260507053503 | 4 | 264 | 3.2 | 11.3 | 0.00 | 2.06 | 0.00 | 56 | 1011.4 |
| 20260507053004 | 4 | 265 | 3.2 | 11.3 | 0.00 | 2.08 | 0.00 | 56 | 1011.5 |
| 20260507052503 | 4 | 266 | 4.8 | 11.3 | 0.00 | 2.08 | 0.00 | 55 | 1011.5 |
| 20260507052003 | 4 | 268 | 3.2 | 12.9 | 0.00 | 2.13 | 0.00 | 55 | 1011.4 |
| 20260507051713 | 4 | 268 | 4.8 | 12.9 | 0.00 | 2.13 | 0.00 | 55 | 1011.6 |
| 20260507051003 | 4 | 264 | 3.2 | 14.5 | 0.00 | 2.16 | 0.00 | 55 | 1011.5 |
| 20260507050713 | 4 | 269 | 3.2 | 14.5 | 0.00 | 2.16 | 0.00 | 55 | 1011.5 |
| 20260507050003 | 4 | 273 | 3.2 | 11.3 | 0.00 | 2.18 | 0.00 | 55 | 1011.7 |
| 20260507045713 | 4 | 267 | 4.8 | 14.5 | 0.00 | 2.21 | 0.00 | 54 | 1011.6 |
| 20260507045214 | 4 | 265 | 3.2 | 14.5 | 0.00 | 2.24 | 0.00 | 55 | 1011.6 |
| 20260507044503 | 5 | 265 | 1.6 | 8.0 | 0.00 | 2.24 | 0.00 | 55 | 1011.7 |
| 20260507044003 | 5 | 266 | 1.6 | 8.0 | 0.00 | 2.24 | 0.00 | 55 | 1011.6 |
| 20260507043712 | 5 | 262 | 1.6 | 8.0 | 0.00 | 2.26 | 0.00 | 55 | 1011.5 |
| 20260507043003 | 5 | 278 | 1.6 | 6.4 | 0.00 | 2.26 | 0.00 | 55 | 1011.5 |
| 20260507042503 | 5 | 331 | 0.0 | 4.8 | 0.00 | 2.26 | 0.00 | 55 | 1011.5 |
| 20260507042003 | 5 | 276 | 0.0 | 4.8 | 0.00 | 2.26 | 0.00 | 55 | 1011.4 |
| 20260507041503 | 5 | 280 | 1.6 | 11.3 | 0.00 | 2.26 | 0.00 | 55 | 1011.4 |
| 20260507041003 | 5 | 299 | 3.2 | 11.3 | 0.00 | 2.26 | 0.00 | 55 | 1011.4 |
| 20260507040503 | 5 | 294 | 3.2 | 11.3 | 0.00 | 2.26 | 0.00 | 55 | 1011.4 |
| 20260507040003 | 5 | 285 | 3.2 | 11.3 | 0.00 | 2.26 | 0.00 | 55 | 1011.4 |
| 20260507035503 | 5 | 288 | 3.2 | 11.3 | 0.00 | 2.26 | 2.26 | 55 | 1011.5 |
| 20260507035213 | 5 | 277 | 3.2 | 11.3 | 0.00 | 2.26 | 2.26 | 55 | 1011.4 |
| 20260507034503 | 5 | 267 | 1.6 | 11.3 | 0.00 | 2.26 | 2.26 | 56 | 1011.3 |
| 20260507034213 | 5 | 273 | 1.6 | 11.3 | 0.00 | 2.26 | 2.26 | 56 | 1011.3 |
| 20260507033503 | 5 | 269 | 3.2 | 11.3 | 0.00 | 2.26 | 2.26 | 56 | 1011.3 |
| 20260507033003 | 5 | 278 | 1.6 | 11.3 | 0.00 | 2.26 | 2.26 | 56 | 1011.3 |
| 20260507032504 | 5 | 276 | 1.6 | 12.9 | 0.00 | 2.26 | 2.26 | 57 | 1011.2 |
| 20260507032003 | 5 | 263 | 3.2 | 12.9 | 0.00 | 2.26 | 2.26 | 57 | 1011.2 |
| 20260507031714 | 5 | 275 | 1.6 | 12.9 | 0.00 | 2.26 | 2.26 | 58 | 1011.2 |
| 20260507031003 | 5 | 282 | 3.2 | 12.9 | 0.00 | 2.26 | 2.26 | 58 | 1011.2 |
| 20260507030714 | 5 | 277 | 4.8 | 12.9 | 0.00 | 2.26 | 2.26 | 58 | 1011.3 |
| 20260507030003 | 5 | 271 | 4.8 | 14.5 | 0.00 | 2.26 | 2.26 | 58 | 1011.3 |
| 20260507025503 | 5 | 268 | 3.2 | 14.5 | 0.00 | 2.26 | 2.26 | 58 | 1011.1 |
| 20260507025003 | 5 | 264 | 1.6 | 12.9 | 0.00 | 2.26 | 2.26 | 59 | 1011.0 |
| 20260507024714 | 5 | 281 | 3.2 | 12.9 | 0.00 | 2.26 | 2.26 | 59 | 1011.1 |
| 20260507024003 | 5 | 304 | 4.8 | 17.7 | 0.00 | 2.26 | 2.26 | 59 | 1011.1 |
| 20260507023503 | 5 | 300 | 3.2 | 17.7 | 0.00 | 2.29 | 2.26 | 59 | 1011.2 |
| 20260507023003 | 6 | 319 | 1.6 | 8.0 | 0.00 | 2.31 | 2.26 | 58 | 1011.1 |
| 20260507022714 | 6 | 339 | 1.6 | 8.0 | 0.00 | 2.31 | 2.26 | 58 | 1011.0 |
| 20260507022003 | 6 | 300 | 3.2 | 12.9 | 0.00 | 2.34 | 2.26 | 58 | 1011.0 |
| 20260507021503 | 6 | 289 | 3.2 | 11.3 | 0.00 | 2.36 | 2.26 | 58 | 1011.0 |
| 20260507021213 | 6 | 287 | 3.2 | 12.9 | 0.00 | 2.36 | 2.26 | 58 | 1011.0 |
| 20260507020503 | 6 | 283 | 3.2 | 12.9 | 0.00 | 2.44 | 2.26 | 58 | 1011.0 |
| 20260507020003 | 6 | 278 | 4.8 | 16.1 | 0.00 | 2.49 | 2.26 | 58 | 1010.9 |
| 20260507015503 | 6 | 284 | 4.8 | 16.1 | 0.00 | 2.51 | 2.26 | 58 | 1011.1 |
| 20260507015003 | 6 | 283 | 4.8 | 14.5 | 0.00 | 2.64 | 2.26 | 58 | 1011.1 |
| 20260507014503 | 6 | 290 | 4.8 | 14.5 | 0.00 | 2.67 | 2.26 | 58 | 1011.0 |
| 20260507014003 | 6 | 306 | 3.2 | 11.3 | 0.00 | 2.69 | 2.26 | 58 | 1010.8 |
| 20260507013503 | 6 | 324 | 3.2 | 12.9 | 0.00 | 2.69 | 2.26 | 58 | 1010.9 |
| 20260507013003 | 6 | 336 | 4.8 | 12.9 | 0.00 | 2.72 | 2.26 | 58 | 1010.8 |
| 20260507012503 | 6 | 334 | 4.8 | 12.9 | 0.00 | 2.72 | 2.26 | 58 | 1011.0 |
| 20260507012003 | 7 | 307 | 3.2 | 8.0 | 0.00 | 2.74 | 2.26 | 58 | 1010.8 |
| 20260507011503 | 7 | 279 | 4.8 | 25.7 | 0.00 | 2.77 | 2.26 | 58 | 1011.0 |
| 20260507011003 | 7 | 284 | 4.8 | 25.7 | 0.00 | 2.90 | 2.26 | 58 | 1010.8 |
| 20260507010503 | 7 | 324 | 4.8 | 17.7 | 0.00 | 3.02 | 2.26 | 58 | 1010.7 |
| 20260507010214 | 7 | 317 | 4.8 | 17.7 | 0.00 | 3.07 | 2.26 | 58 | 1010.7 |
| 20260507005503 | 7 | 284 | 6.4 | 17.7 | 0.00 | 3.10 | 2.26 | 59 | 1010.7 |
| 20260507005003 | 7 | 315 | 6.4 | 22.5 | 0.00 | 3.10 | 2.26 | 59 | 1010.6 |
| 20260507004503 | 7 | 342 | 6.4 | 22.5 | 0.00 | 3.10 | 2.26 | 59 | 1010.4 |
| 20260507004003 | 7 | 333 | 4.8 | 20.9 | 0.00 | 3.10 | 2.26 | 59 | 1010.6 |
| 20260507003713 | 7 | 337 | 4.8 | 20.9 | 0.00 | 3.10 | 2.26 | 59 | 1010.4 |
| 20260507003003 | 7 | 353 | 1.6 | 8.0 | 0.00 | 3.12 | 2.26 | 60 | 1010.3 |
| 20260507002503 | 7 | 352 | 1.6 | 8.0 | 0.00 | 3.17 | 2.26 | 61 | 1010.2 |
| 20260507002003 | 7 | 360 | 1.6 | 12.9 | 0.00 | 3.17 | 2.26 | 61 | 1010.1 |
| 20260507001503 | 7 | 1 | 1.6 | 12.9 | 0.00 | 3.20 | 2.26 | 62 | 1009.9 |
| 20260507001214 | 7 | 2 | 0.0 | 8.0 | 0.00 | 3.20 | 2.26 | 62 | 1010.0 |
| 20260507000503 | 7 | 359 | 0.0 | 6.4 | 0.00 | 3.20 | 2.26 | 62 | 1010.0 |
| 20260507000214 | 7 | 3 | 0.0 | 6.4 | 0.00 | 3.20 | 2.26 | 62 | 1009.9 |
| 20260506235713 | 7 | 53 | 1.6 | 4.8 | 0.00 | 3.20 | 2.26 | 62 | 1009.7 |
| 20260506235003 | 7 | 75 | 0.0 | 3.2 | 0.00 | 3.20 | 2.26 | 62 | 1009.6 |
| 20260506234503 | 7 | 114 | 1.6 | 3.2 | 0.00 | 3.20 | 2.26 | 62 | 1009.7 |
| 20260506234003 | 7 | 111 | 0.0 | 3.2 | 0.00 | 3.20 | 2.26 | 62 | 1009.6 |
| 20260506233503 | 7 | 0 | 0.0 | 0.0 | 0.00 | 3.20 | 2.26 | 62 | 1009.5 |
| 20260506233213 | 7 | 0 | 0.0 | 0.0 | 0.00 | 3.20 | 2.26 | 62 | 1009.4 |
| 20260506232503 | 7 | 0 | 0.0 | 0.0 | 0.00 | 3.20 | 2.26 | 62 | 1009.3 |
| 20260506232003 | 7 | 0 | 0.0 | 0.0 | 0.00 | 3.23 | 2.26 | 62 | 1009.3 |
| 20260506231503 | 7 | 0 | 0.0 | 0.0 | 0.00 | 3.23 | 2.26 | 61 | 1009.3 |
| 20260506231003 | 7 | 40 | 1.6 | 3.2 | 0.00 | 3.25 | 2.26 | 61 | 1009.3 |
| 20260506230712 | 7 | 28 | 1.6 | 4.8 | 0.00 | 3.25 | 2.26 | 61 | 1009.4 |
| 20260506230003 | 7 | 19 | 0.0 | 4.8 | 0.00 | 3.25 | 2.26 | 61 | 1009.2 |
| 20260506225503 | 7 | 0 | 0.0 | 0.0 | 0.00 | 3.25 | 2.26 | 61 | 1009.3 |
| 20260506225003 | 7 | 0 | 0.0 | 0.0 | 0.00 | 3.25 | 2.26 | 62 | 1009.2 |
| 20260506224503 | 7 | 0 | 0.0 | 0.0 | 0.00 | 3.25 | 2.26 | 62 | 1009.2 |
| 20260506224003 | 7 | 0 | 0.0 | 0.0 | 0.00 | 3.25 | 2.26 | 62 | 1009.1 |
| 20260506223503 | 7 | 0 | 0.0 | 0.0 | 0.00 | 3.25 | 2.26 | 61 | 1009.0 |
| 20260506223003 | 7 | 0 | 0.0 | 0.0 | 0.00 | 3.25 | 2.26 | 62 | 1009.0 |
| 20260506222714 | 7 | 0 | 0.0 | 0.0 | 0.00 | 3.25 | 2.26 | 62 | 1009.0 |
| 20260506222003 | 7 | 96 | 1.6 | 3.2 | 0.00 | 3.25 | 2.26 | 61 | 1008.9 |
| 20260506221714 | 7 | 96 | 1.6 | 3.2 | 0.00 | 3.25 | 2.26 | 61 | 1008.9 |
| 20260506221213 | 7 | 96 | 0.0 | 3.2 | 0.00 | 3.25 | 2.26 | 62 | 1008.8 |
| 20260506220503 | 7 | 97 | 0.0 | 4.8 | 0.00 | 3.25 | 2.26 | 62 | 1008.8 |
| 20260506220213 | 7 | 97 | 1.6 | 4.8 | 0.00 | 3.25 | 2.26 | 62 | 1008.8 |
| 20260506215503 | 7 | 96 | 1.6 | 4.8 | 0.00 | 3.25 | 2.26 | 61 | 1008.9 |
| 20260506215004 | 7 | 86 | 1.6 | 6.4 | 0.00 | 3.25 | 2.26 | 61 | 1009.1 |
| 20260506214714 | 7 | 85 | 1.6 | 6.4 | 0.00 | 3.25 | 2.26 | 62 | 1009.0 |
| 20260506214003 | 7 | 41 | 0.0 | 4.8 | 0.00 | 3.25 | 2.26 | 63 | 1008.9 |
| 20260506213714 | 7 | 10 | 1.6 | 6.4 | 0.00 | 3.25 | 2.26 | 63 | 1008.9 |
| 20260506213003 | 7 | 316 | 1.6 | 8.0 | 0.00 | 3.25 | 2.26 | 64 | 1009.0 |
| 20260506212503 | 7 | 356 | 1.6 | 8.0 | 0.00 | 3.25 | 2.26 | 63 | 1009.0 |
| 20260506212003 | 7 | 79 | 1.6 | 4.8 | 0.00 | 3.25 | 2.26 | 64 | 1008.9 |
| 20260506211714 | 7 | 79 | 1.6 | 4.8 | 0.00 | 3.25 | 2.26 | 64 | 1008.9 |
| 20260506211003 | 7 | 77 | 1.6 | 4.8 | 0.00 | 3.25 | 2.26 | 64 | 1009.0 |
| 20260506210503 | 7 | 44 | 1.6 | 4.8 | 0.00 | 3.25 | 2.26 | 64 | 1009.1 |
| 20260506210003 | 7 | 14 | 1.6 | 6.4 | 0.00 | 3.25 | 2.26 | 64 | 1008.9 |
| 20260506205503 | 7 | 13 | 3.2 | 6.4 | 0.00 | 3.25 | 2.26 | 64 | 1008.8 |
| 20260506205003 | 7 | 24 | 3.2 | 8.0 | 0.00 | 3.25 | 2.26 | 64 | 1008.7 |
| 20260506204503 | 7 | 24 | 4.8 | 8.0 | 0.00 | 3.25 | 2.26 | 64 | 1008.8 |
| 20260506204003 | 7 | 2 | 4.8 | 9.7 | 0.00 | 3.25 | 2.26 | 65 | 1008.8 |
| 20260506203503 | 7 | 353 | 4.8 | 9.7 | 0.00 | 3.25 | 2.26 | 64 | 1008.8 |
| 20260506203003 | 7 | 358 | 4.8 | 9.7 | 0.00 | 3.25 | 2.26 | 64 | 1008.8 |
| 20260506202503 | 7 | 9 | 3.2 | 9.7 | 0.00 | 3.25 | 2.26 | 64 | 1008.9 |
| 20260506202003 | 7 | 25 | 1.6 | 9.7 | 0.00 | 3.25 | 2.26 | 64 | 1008.9 |
| 20260506201503 | 7 | 27 | 3.2 | 6.4 | 0.00 | 3.25 | 2.26 | 64 | 1008.9 |
| 20260506201212 | 7 | 30 | 3.2 | 8.0 | 0.00 | 3.25 | 2.26 | 64 | 1008.9 |
| 20260506200503 | 7 | 35 | 3.2 | 8.0 | 0.00 | 3.25 | 2.26 | 64 | 1008.8 |
| 20260506200003 | 7 | 70 | 3.2 | 6.4 | 0.00 | 3.25 | 2.26 | 64 | 1008.7 |
| 20260506195503 | 7 | 52 | 4.8 | 11.3 | 0.00 | 3.25 | 2.26 | 64 | 1008.8 |
| 20260506195003 | 7 | 18 | 4.8 | 11.3 | 0.00 | 3.25 | 2.26 | 65 | 1008.7 |
| 20260506194503 | 7 | 352 | 3.2 | 8.0 | 0.00 | 3.25 | 2.26 | 65 | 1008.6 |
| 20260506194214 | 7 | 341 | 1.6 | 8.0 | 0.00 | 3.25 | 2.26 | 65 | 1008.6 |
| 20260506193503 | 7 | 349 | 1.6 | 6.4 | 0.03 | 3.25 | 2.26 | 65 | 1008.6 |
| 20260506193214 | 7 | 355 | 3.2 | 9.7 | 0.03 | 3.25 | 2.26 | 65 | 1008.5 |
| 20260506192503 | 7 | 350 | 4.8 | 14.5 | 0.03 | 3.28 | 2.26 | 65 | 1008.4 |
| 20260506192003 | 7 | 345 | 4.8 | 14.5 | 0.03 | 3.28 | 2.26 | 65 | 1008.5 |
| 20260506191503 | 7 | 356 | 3.2 | 9.7 | 0.03 | 3.28 | 2.26 | 65 | 1008.5 |
| 20260506191003 | 7 | 2 | 3.2 | 9.7 | 0.03 | 3.28 | 2.26 | 65 | 1008.5 |
| 20260506190503 | 7 | 359 | 3.2 | 9.7 | 0.03 | 3.28 | 2.26 | 66 | 1008.5 |
| 20260506190004 | 6 | 354 | 3.2 | 9.7 | 0.03 | 3.28 | 2.26 | 65 | 1008.4 |
| 20260506185503 | 6 | 353 | 3.2 | 8.0 | 0.03 | 3.28 | 2.26 | 65 | 1008.5 |
| 20260506185003 | 6 | 357 | 4.8 | 9.7 | 0.03 | 3.28 | 2.26 | 65 | 1008.5 |
| 20260506184503 | 6 | 2 | 4.8 | 9.7 | 0.03 | 3.28 | 2.26 | 65 | 1008.4 |
| 20260506184003 | 6 | 9 | 4.8 | 8.0 | 0.03 | 3.28 | 2.26 | 65 | 1008.3 |
| 20260506183503 | 6 | 6 | 4.8 | 12.9 | 0.00 | 3.25 | 2.24 | 65 | 1008.3 |
| 20260506183003 | 6 | 5 | 4.8 | 12.9 | 0.00 | 3.25 | 2.24 | 65 | 1008.2 |
| 20260506182503 | 6 | 1 | 4.8 | 12.9 | 0.00 | 3.25 | 2.24 | 66 | 1008.3 |
| 20260506182003 | 6 | 341 | 3.2 | 16.1 | 0.00 | 3.25 | 2.24 | 65 | 1008.2 |
| 20260506181503 | 6 | 324 | 3.2 | 16.1 | 0.00 | 3.25 | 2.24 | 65 | 1008.2 |
| 20260506181214 | 6 | 319 | 3.2 | 16.1 | 0.00 | 3.25 | 2.24 | 65 | 1008.3 |
| 20260506180503 | 6 | 325 | 3.2 | 9.7 | 0.00 | 3.25 | 2.24 | 66 | 1008.3 |
| 20260506180004 | 6 | 344 | 3.2 | 8.0 | 0.00 | 3.25 | 2.24 | 66 | 1008.2 |
| 20260506175503 | 6 | 350 | 3.2 | 11.3 | 0.00 | 3.25 | 2.24 | 65 | 1008.3 |
| 20260506175003 | 6 | 347 | 3.2 | 11.3 | 0.00 | 3.25 | 2.24 | 65 | 1008.2 |
| 20260506174714 | 6 | 352 | 3.2 | 11.3 | 0.00 | 3.25 | 2.24 | 65 | 1008.2 |
| 20260506174003 | 6 | 18 | 3.2 | 8.0 | 0.00 | 3.25 | 2.24 | 65 | 1008.0 |
| 20260506173503 | 6 | 36 | 3.2 | 6.4 | 0.00 | 3.25 | 2.24 | 66 | 1007.9 |
| 20260506173003 | 6 | 28 | 3.2 | 8.0 | 0.00 | 3.25 | 2.24 | 66 | 1007.9 |
| 20260506172503 | 6 | 26 | 3.2 | 8.0 | 0.00 | 3.25 | 2.24 | 66 | 1007.7 |
| 20260506172213 | 6 | 22 | 4.8 | 8.0 | 0.00 | 3.25 | 2.24 | 66 | 1007.7 |
| 20260506171503 | 6 | 37 | 4.8 | 8.0 | 0.00 | 3.25 | 2.24 | 66 | 1007.7 |
| 20260506171003 | 6 | 30 | 4.8 | 8.0 | 0.00 | 3.25 | 2.24 | 66 | 1007.6 |
| 20260506170503 | 6 | 14 | 3.2 | 8.0 | 0.00 | 3.25 | 2.24 | 66 | 1007.6 |
| 20260506170004 | 6 | 21 | 1.6 | 8.0 | 0.00 | 3.25 | 2.24 | 65 | 1007.6 |
| 20260506165503 | 6 | 39 | 1.6 | 6.4 | 0.00 | 3.25 | 2.24 | 65 | 1007.6 |
| 20260506165003 | 6 | 48 | 3.2 | 9.7 | 0.00 | 3.28 | 2.24 | 65 | 1007.5 |
| 20260506164503 | 6 | 53 | 4.8 | 9.7 | 0.00 | 3.28 | 2.24 | 65 | 1007.6 |
| 20260506164003 | 6 | 29 | 4.8 | 9.7 | 0.00 | 3.28 | 2.24 | 66 | 1007.5 |
| 20260506163503 | 6 | 12 | 4.8 | 9.7 | 0.00 | 3.28 | 2.24 | 65 | 1007.5 |
| 20260506163003 | 6 | 21 | 4.8 | 9.7 | 0.00 | 3.28 | 2.24 | 66 | 1007.5 |
| 20260506162503 | 6 | 22 | 4.8 | 9.7 | 0.03 | 3.28 | 2.24 | 66 | 1007.4 |
| 20260506162003 | 6 | 19 | 3.2 | 8.0 | 0.03 | 3.28 | 2.24 | 66 | 1007.4 |
| 20260506161503 | 6 | 41 | 4.8 | 11.3 | 0.05 | 3.28 | 2.24 | 66 | 1007.4 |
| 20260506161003 | 6 | 57 | 4.8 | 11.3 | 0.05 | 3.28 | 2.24 | 66 | 1007.3 |
| 20260506160503 | 6 | 44 | 3.2 | 9.7 | 0.05 | 3.28 | 2.24 | 66 | 1007.3 |
| 20260506160003 | 6 | 27 | 3.2 | 9.7 | 0.05 | 3.28 | 2.24 | 66 | 1007.4 |
| 20260506155714 | 6 | 28 | 4.8 | 9.7 | 0.05 | 3.28 | 2.24 | 66 | 1007.5 |
| 20260506155213 | 6 | 18 | 3.2 | 9.7 | 0.05 | 3.28 | 2.24 | 66 | 1007.7 |
| 20260506154503 | 6 | 18 | 1.6 | 6.4 | 0.05 | 3.28 | 2.24 | 66 | 1007.8 |
| 20260506154003 | 6 | 27 | 3.2 | 8.0 | 0.08 | 3.28 | 2.24 | 66 | 1007.8 |
| 20260506153503 | 6 | 49 | 4.8 | 9.7 | 0.08 | 3.28 | 2.24 | 66 | 1007.8 |
| 20260506153003 | 6 | 64 | 6.4 | 12.9 | 0.08 | 3.28 | 2.24 | 66 | 1007.6 |
| 20260506152503 | 6 | 49 | 6.4 | 12.9 | 0.05 | 3.25 | 2.21 | 66 | 1007.6 |
| 20260506152003 | 6 | 29 | 3.2 | 11.3 | 0.05 | 3.25 | 2.21 | 66 | 1007.6 |
| 20260506151503 | 5 | 6 | 3.2 | 9.7 | 0.05 | 3.23 | 2.18 | 66 | 1007.7 |
| 20260506151003 | 5 | 355 | 3.2 | 9.7 | 0.05 | 3.23 | 2.18 | 66 | 1007.7 |
| 20260506150503 | 5 | 4 | 3.2 | 8.0 | 0.05 | 3.23 | 2.18 | 66 | 1007.7 |
| 20260506150003 | 5 | 19 | 1.6 | 6.4 | 0.05 | 3.23 | 2.18 | 66 | 1007.6 |
| 20260506145503 | 5 | 12 | 1.6 | 6.4 | 0.05 | 3.23 | 2.18 | 66 | 1007.6 |
| 20260506145003 | 5 | 7 | 3.2 | 9.7 | 0.05 | 3.23 | 2.18 | 66 | 1007.4 |
| 20260506144503 | 5 | 10 | 4.8 | 9.7 | 0.05 | 3.23 | 2.18 | 66 | 1007.3 |
| 20260506144003 | 5 | 22 | 4.8 | 11.3 | 0.03 | 3.20 | 2.16 | 66 | 1007.2 |
| 20260506143503 | 5 | 29 | 3.2 | 11.3 | 0.03 | 3.20 | 2.16 | 66 | 1007.0 |
| 20260506143214 | 5 | 28 | 4.8 | 11.3 | 0.03 | 3.20 | 2.16 | 66 | 1007.1 |
| 20260506142503 | 5 | 32 | 4.8 | 11.3 | 0.05 | 3.20 | 2.16 | 66 | 1007.0 |
| 20260506142003 | 5 | 25 | 4.8 | 12.9 | 0.05 | 3.20 | 2.16 | 66 | 1007.0 |
| 20260506141503 | 5 | 2 | 6.4 | 14.5 | 0.03 | 3.17 | 2.16 | 66 | 1007.1 |
| 20260506141003 | 5 | 1 | 8.0 | 16.1 | 0.03 | 3.17 | 2.13 | 66 | 1006.9 |
| 20260506140713 | 5 | 1 | 8.0 | 16.1 | 0.03 | 3.17 | 2.13 | 66 | 1007.1 |
| 20260506140003 | 5 | 4 | 6.4 | 14.5 | 0.03 | 3.17 | 2.13 | 66 | 1007.1 |
| 20260506135503 | 5 | 6 | 6.4 | 12.9 | 0.05 | 3.17 | 2.13 | 66 | 1007.1 |
| 20260506135003 | 5 | 6 | 6.4 | 12.9 | 0.05 | 3.17 | 2.13 | 65 | 1007.0 |
| 20260506134503 | 5 | 14 | 4.8 | 12.9 | 0.05 | 3.17 | 2.13 | 66 | 1007.3 |
| 20260506134003 | 5 | 21 | 4.8 | 11.3 | 0.05 | 3.17 | 2.13 | 66 | 1007.2 |
| 20260506133503 | 5 | 11 | 3.2 | 11.3 | 0.08 | 3.17 | 2.13 | 66 | 1007.2 |
| 20260506133003 | 5 | 7 | 4.8 | 12.9 | 0.10 | 3.17 | 2.13 | 66 | 1007.2 |
| 20260506132503 | 5 | 8 | 4.8 | 12.9 | 0.10 | 3.15 | 2.11 | 66 | 1007.1 |
| 20260506132003 | 5 | 2 | 6.4 | 12.9 | 0.10 | 3.15 | 2.11 | 66 | 1007.1 |
| 20260506131503 | 5 | 357 | 6.4 | 16.1 | 0.13 | 3.15 | 2.11 | 66 | 1007.1 |
| 20260506131003 | 5 | 357 | 4.8 | 16.1 | 0.15 | 3.15 | 2.11 | 66 | 1007.2 |
| 20260506130503 | 5 | 357 | 6.4 | 16.1 | 0.20 | 3.15 | 2.11 | 66 | 1007.2 |
| 20260506130214 | 5 | 357 | 6.4 | 17.7 | 0.23 | 3.15 | 2.11 | 66 | 1007.2 |
| 20260506125503 | 5 | 354 | 8.0 | 17.7 | 0.25 | 3.12 | 2.08 | 66 | 1007.2 |
| 20260506125003 | 5 | 351 | 6.4 | 17.7 | 0.25 | 3.12 | 2.08 | 66 | 1007.2 |
| 20260506124503 | 5 | 348 | 6.4 | 14.5 | 0.28 | 3.12 | 2.08 | 66 | 1007.3 |
| 20260506124003 | 5 | 345 | 6.4 | 16.1 | 0.30 | 3.12 | 2.08 | 66 | 1007.4 |
| 20260506123503 | 5 | 350 | 6.4 | 16.1 | 0.30 | 3.10 | 2.06 | 66 | 1007.2 |
| 20260506123003 | 5 | 354 | 4.8 | 12.9 | 0.30 | 3.07 | 2.03 | 65 | 1007.4 |
| 20260506122503 | 5 | 350 | 4.8 | 14.5 | 0.28 | 3.05 | 2.03 | 65 | 1007.7 |
| 20260506122003 | 5 | 349 | 6.4 | 16.1 | 0.30 | 3.05 | 2.01 | 65 | 1007.6 |
| 20260506121503 | 5 | 350 | 8.0 | 17.7 | 0.30 | 3.02 | 1.98 | 65 | 1007.5 |
| 20260506121003 | 5 | 355 | 9.7 | 19.3 | 0.28 | 3.00 | 1.96 | 65 | 1007.3 |
| 20260506120503 | 5 | 358 | 11.3 | 25.7 | 0.23 | 2.95 | 1.91 | 65 | 1007.5 |
| 20260506120003 | 5 | 358 | 11.3 | 25.7 | 0.20 | 2.90 | 1.85 | 65 | 1007.3 |
| 20260506115503 | 5 | 4 | 11.3 | 22.5 | 0.20 | 2.87 | 1.83 | 65 | 1007.2 |
| 20260506115003 | 5 | 11 | 11.3 | 22.5 | 0.20 | 2.87 | 1.83 | 65 | 1006.9 |
| 20260506114503 | 5 | 8 | 9.7 | 17.7 | 0.20 | 2.84 | 1.80 | 65 | 1006.9 |
| 20260506114213 | 5 | 5 | 9.7 | 19.3 | 0.20 | 2.82 | 1.78 | 65 | 1006.8 |
| 20260506113503 | 5 | 10 | 11.3 | 24.1 | 0.20 | 2.79 | 1.75 | 65 | 1006.7 |
| 20260506113003 | 5 | 5 | 12.9 | 24.1 | 0.20 | 2.77 | 1.73 | 65 | 1006.7 |
| 20260506112503 | 5 | 359 | 12.9 | 25.7 | 0.20 | 2.77 | 1.73 | 65 | 1006.7 |
| 20260506112213 | 5 | 360 | 11.3 | 25.7 | 0.20 | 2.74 | 1.70 | 65 | 1006.7 |
| 20260506111503 | 5 | 5 | 11.3 | 22.5 | 0.20 | 2.72 | 1.68 | 65 | 1006.7 |
| 20260506111003 | 5 | 5 | 12.9 | 24.1 | 0.23 | 2.72 | 1.68 | 65 | 1006.8 |
| 20260506110503 | 5 | 1 | 12.9 | 25.7 | 0.28 | 2.72 | 1.68 | 65 | 1006.9 |
| 20260506110003 | 5 | 356 | 11.3 | 25.7 | 0.28 | 2.69 | 1.65 | 65 | 1006.7 |
| 20260506105503 | 5 | 355 | 11.3 | 22.5 | 0.28 | 2.67 | 1.63 | 65 | 1006.7 |
| 20260506105003 | 5 | 4 | 11.3 | 22.5 | 0.33 | 2.67 | 1.63 | 65 | 1006.8 |
| 20260506104503 | 5 | 8 | 12.9 | 24.1 | 0.33 | 2.64 | 1.60 | 65 | 1006.7 |
| 20260506104003 | 5 | 3 | 12.9 | 24.1 | 0.33 | 2.62 | 1.57 | 65 | 1006.9 |
| 20260506103503 | 5 | 3 | 12.9 | 25.7 | 0.33 | 2.59 | 1.55 | 65 | 1006.8 |
| 20260506103003 | 5 | 6 | 12.9 | 25.7 | 0.33 | 2.57 | 1.52 | 65 | 1006.9 |
| 20260506102503 | 6 | 11 | 11.3 | 22.5 | 0.36 | 2.57 | 1.52 | 65 | 1006.9 |
| 20260506102213 | 6 | 13 | 9.7 | 20.9 | 0.36 | 2.54 | 1.50 | 65 | 1006.9 |
| 20260506101503 | 6 | 10 | 11.3 | 19.3 | 0.41 | 2.51 | 1.47 | 65 | 1006.8 |
| 20260506101003 | 6 | 6 | 11.3 | 19.3 | 0.38 | 2.49 | 1.45 | 65 | 1007.0 |
| 20260506100503 | 6 | 6 | 11.3 | 19.3 | 0.36 | 2.44 | 1.40 | 65 | 1007.0 |
| 20260506100004 | 6 | 8 | 9.7 | 19.3 | 0.33 | 2.41 | 1.37 | 65 | 1006.8 |
| 20260506095503 | 6 | 4 | 11.3 | 24.1 | 0.33 | 2.39 | 1.35 | 65 | 1006.7 |
| 20260506095212 | 6 | 3 | 9.7 | 24.1 | 0.33 | 2.36 | 1.32 | 65 | 1006.6 |
| 20260506094503 | 6 | 9 | 8.0 | 20.9 | 0.30 | 2.31 | 1.27 | 65 | 1006.7 |
| 20260506094003 | 6 | 12 | 9.7 | 17.7 | 0.30 | 2.29 | 1.24 | 65 | 1006.7 |
| 20260506093503 | 6 | 14 | 8.0 | 17.7 | 0.28 | 2.26 | 1.22 | 65 | 1006.8 |
| 20260506093004 | 6 | 17 | 6.4 | 16.1 | 0.28 | 2.24 | 1.19 | 65 | 1006.6 |
| 20260506092503 | 6 | 17 | 8.0 | 16.1 | 0.25 | 2.21 | 1.17 | 65 | 1006.7 |
| 20260506092003 | 6 | 5 | 9.7 | 20.9 | 0.23 | 2.16 | 1.12 | 65 | 1006.6 |
| 20260506091503 | 6 | 358 | 11.3 | 22.5 | 0.20 | 2.11 | 1.07 | 65 | 1006.6 |
| 20260506091003 | 6 | 358 | 9.7 | 22.5 | 0.20 | 2.11 | 1.07 | 65 | 1006.4 |
| 20260506090503 | 6 | 359 | 9.7 | 19.3 | 0.20 | 2.08 | 1.04 | 65 | 1006.6 |
| 20260506090003 | 6 | 360 | 9.7 | 19.3 | 0.23 | 2.08 | 1.04 | 65 | 1006.7 |
| 20260506085503 | 6 | 9 | 8.0 | 19.3 | 0.23 | 2.06 | 1.02 | 65 | 1006.8 |
| 20260506085003 | 7 | 9 | 8.0 | 19.3 | 0.23 | 2.03 | 0.99 | 65 | 1006.9 |
| 20260506084503 | 7 | 5 | 8.0 | 19.3 | 0.23 | 2.01 | 0.97 | 65 | 1006.7 |
| 20260506084003 | 7 | 7 | 8.0 | 17.7 | 0.25 | 1.98 | 0.94 | 65 | 1006.9 |
| 20260506083503 | 7 | 8 | 6.4 | 16.1 | 0.25 | 1.98 | 0.94 | 65 | 1006.9 |
| 20260506083003 | 7 | 6 | 8.0 | 16.1 | 0.28 | 1.96 | 0.91 | 65 | 1007.1 |
| 20260506082503 | 7 | 6 | 6.4 | 16.1 | 0.36 | 1.96 | 0.91 | 65 | 1007.1 |
| 20260506082003 | 7 | 14 | 8.0 | 16.1 | 0.36 | 1.93 | 0.89 | 65 | 1007.2 |
| 20260506081713 | 7 | 13 | 8.0 | 16.1 | 0.43 | 1.93 | 0.89 | 65 | 1007.1 |
| 20260506081003 | 7 | 14 | 8.0 | 16.1 | 0.48 | 1.91 | 0.86 | 65 | 1007.2 |
| 20260506080503 | 7 | 6 | 6.4 | 16.1 | 0.48 | 1.88 | 0.84 | 65 | 1007.1 |